Time,TemperatureF,DewpointF,PressureIn,WindDirection,WindDirectionDegrees,WindSpeedMPH,WindSpeedGustMPH,Humidity,HourlyPrecipIn,Conditions,Clouds,dailyrainin,SoftwareType,DateUTC
2013-02-20 00:00:00,27.1,9.5,30.31,SW,216,3.0,11.0,47,0.00,,,0.00,WUHU216DAVISVP2,2013-02-20 06:00:00,
2013-02-20 00:05:00,27.1,9.5,30.31,SSW,212,2.0,11.0,47,0.00,,,0.00,WUHU216DAVISVP2,2013-02-20 06:05:00,
2013-02-20 00:10:00,27.0,9.4,30.31,SW,218,2.0,10.0,47,0.00,,,0.00,WUHU216DAVISVP2,2013-02-20 06:10:00,
2013-02-20 00:15:00,27.0,9.4,30.32,SW,216,1.0,10.0,47,0.00,,,0.00,WUHU216DAVISVP2,2013-02-20 06:15:00,
2013-02-20 00:20:00,26.9,9.3,30.32,SW,216,0.0,8.0,47,0.00,,,0.00,WUHU216DAVISVP2,2013-02-20 06:20:00,
2013-02-20 00:25:00,26.8,9.2,30.32,SW,216,0.0,8.0,47,0.00,,,0.00,WUHU216DAVISVP2,2013-02-20 06:25:00,
2013-02-20 00:30:00,26.7,9.1,30.33,SW,216,0.0,5.0,47,0.00,,,0.00,WUHU216DAVISVP2,2013-02-20 06:30:00,
2013-02-20 00:35:00,26.6,9.0,30.33,SW,216,0.0,3.0,47,0.00,,,0.00,WUHU216DAVISVP2,2013-02-20 06:35:00,
2013-02-20 00:40:00,26.5,8.9,30.33,SW,216,1.0,3.0,47,0.00,,,0.00,WUHU216DAVISVP2,2013-02-20 06:40:00,
2013-02-20 00:45:00,26.5,8.9,30.33,SW,216,5.0,5.0,47,0.00,,,0.00,WUHU216DAVISVP2,2013-02-20 06:45:00,
2013-02-20 00:50:00,26.4,8.8,30.33,SW,216,1.0,5.0,47,0.00,,,0.00,WUHU216DAVISVP2,2013-02-20 06:50:00,
2013-02-20 00:55:00,26.4,8.8,30.34,SW,216,1.0,5.0,47,0.00,,,0.00,WUHU216DAVISVP2,2013-02-20 06:55:00,
2013-02-20 01:00:00,26.4,8.8,30.34,SW,216,0.0,5.0,47,0.00,,,0.00,WUHU216DAVISVP2,2013-02-20 07:00:00,
2013-02-20 01:05:00,26.3,9.2,30.34,SW,216,1.0,5.0,48,0.00,,,0.00,WUHU216DAVISVP2,2013-02-20 07:05:00,
2013-02-20 01:10:00,26.2,9.1,30.34,SW,216,1.0,5.0,48,0.00,,,0.00,WUHU216DAVISVP2,2013-02-20 07:10:00,
2013-02-20 01:15:00,26.1,9.9,30.33,SW,216,2.0,5.0,50,0.00,,,0.00,WUHU216DAVISVP2,2013-02-20 07:15:00,
2013-02-20 01:20:00,25.9,9.7,30.33,SW,216,1.0,4.0,50,0.00,,,0.00,WUHU216DAVISVP2,2013-02-20 07:20:00,
2013-02-20 01:25:00,25.7,10.0,30.33,SW,216,1.0,4.0,51,0.00,,,0.00,WUHU216DAVISVP2,2013-02-20 07:25:00,
2013-02-20 01:30:00,25.5,10.3,30.33,SW,216,6.0,6.0,52,0.00,,,0.00,WUHU216DAVISVP2,2013-02-20 07:30:00,
2013-02-20 01:35:00,25.4,9.7,30.33,SW,216,2.0,6.0,51,0.00,,,0.00,WUHU216DAVISVP2,2013-02-20 07:35:00,
2013-02-20 01:40:00,25.2,9.6,30.33,SW,216,2.0,6.0,51,0.00,,,0.00,WUHU216DAVISVP2,2013-02-20 07:40:00,
2013-02-20 01:45:00,25.2,9.6,30.34,SW,216,0.0,6.0,51,0.00,,,0.00,WUHU216DAVISVP2,2013-02-20 07:45:00,
2013-02-20 01:50:00,25.1,9.9,30.34,SW,216,3.0,6.0,52,0.00,,,0.00,WUHU216DAVISVP2,2013-02-20 07:50:00,
2013-02-20 01:55:00,25.0,9.8,30.33,SW,216,6.0,7.0,52,0.00,,,0.00,WUHU216DAVISVP2,2013-02-20 07:55:00,
2013-02-20 02:00:00,25.1,9.8,30.33,SW,216,1.0,7.0,52,0.00,,,0.00,WUHU216DAVISVP2,2013-02-20 08:00:00,
2013-02-20 02:05:00,25.1,9.9,30.34,SW,216,1.0,7.0,52,0.00,,,0.00,WUHU216DAVISVP2,2013-02-20 08:05:00,
2013-02-20 02:10:00,25.0,9.8,30.34,SW,216,1.0,7.0,52,0.00,,,0.00,WUHU216DAVISVP2,2013-02-20 08:10:00,
2013-02-20 02:15:00,24.9,9.7,30.34,SW,216,1.0,7.0,52,0.00,,,0.00,WUHU216DAVISVP2,2013-02-20 08:15:00,
2013-02-20 02:20:00,24.8,9.2,30.34,SW,217,4.0,7.0,51,0.00,,,0.00,WUHU216DAVISVP2,2013-02-20 08:20:00,
2013-02-20 02:25:00,24.7,8.6,30.34,WSW,249,6.0,7.0,50,0.00,,,0.00,WUHU216DAVISVP2,2013-02-20 08:25:00,
2013-02-20 02:30:00,24.7,7.7,30.34,SW,233,5.0,8.0,48,0.00,,,0.00,WUHU216DAVISVP2,2013-02-20 08:30:00,
2013-02-20 02:35:00,24.6,8.1,30.34,SW,233,1.0,8.0,49,0.00,,,0.00,WUHU216DAVISVP2,2013-02-20 08:35:00,
2013-02-20 02:40:00,24.5,8.0,30.34,SW,233,2.0,8.0,49,0.00,,,0.00,WUHU216DAVISVP2,2013-02-20 08:40:00,
2013-02-20 02:45:00,24.5,7.9,30.34,SW,233,6.0,8.0,49,0.00,,,0.00,WUHU216DAVISVP2,2013-02-20 08:45:00,
2013-02-20 02:50:00,24.5,8.4,30.34,SW,233,5.0,7.0,50,0.00,,,0.00,WUHU216DAVISVP2,2013-02-20 08:50:00,
2013-02-20 02:55:00,24.3,8.2,30.33,WSW,242,4.0,7.0,50,0.00,,,0.00,WUHU216DAVISVP2,2013-02-20 08:55:00,
2013-02-20 03:00:00,24.3,8.3,30.33,WSW,237,5.0,8.0,50,0.00,,,0.00,WUHU216DAVISVP2,2013-02-20 09:00:00,
2013-02-20 03:05:00,24.3,7.3,30.32,WSW,244,4.0,10.0,48,0.00,,,0.00,WUHU216DAVISVP2,2013-02-20 09:05:00,
2013-02-20 03:10:00,24.2,7.3,30.32,SW,235,3.0,10.0,48,0.00,,,0.00,WUHU216DAVISVP2,2013-02-20 09:10:00,
2013-02-20 03:15:00,24.3,7.7,30.32,WSW,241,5.0,9.0,49,0.00,,,0.00,WUHU216DAVISVP2,2013-02-20 09:15:00,
2013-02-20 03:20:00,24.3,7.8,30.32,WSW,240,5.0,9.0,49,0.00,,,0.00,WUHU216DAVISVP2,2013-02-20 09:20:00,
2013-02-20 03:25:00,24.2,8.1,30.31,WSW,241,6.0,8.0,50,0.00,,,0.00,WUHU216DAVISVP2,2013-02-20 09:25:00,
2013-02-20 03:30:00,24.1,7.6,30.31,WSW,241,4.0,8.0,49,0.00,,,0.00,WUHU216DAVISVP2,2013-02-20 09:30:00,
2013-02-20 03:35:00,24.1,8.1,30.31,WSW,241,6.0,10.0,50,0.00,,,0.00,WUHU216DAVISVP2,2013-02-20 09:35:00,
2013-02-20 03:40:00,24.0,7.6,30.31,WSW,246,11.0,11.0,49,0.00,,,0.00,WUHU216DAVISVP2,2013-02-20 09:40:00,
2013-02-20 03:45:00,24.1,7.6,30.31,WSW,245,8.0,11.0,49,0.00,,,0.00,WUHU216DAVISVP2,2013-02-20 09:45:00,
2013-02-20 03:50:00,24.1,7.1,30.31,SW,231,5.0,11.0,48,0.00,,,0.00,WUHU216DAVISVP2,2013-02-20 09:50:00,
2013-02-20 03:55:00,24.0,7.5,30.31,WSW,249,8.0,11.0,49,0.00,,,0.00,WUHU216DAVISVP2,2013-02-20 09:55:00,
2013-02-20 04:00:00,24.0,7.5,30.31,WSW,251,5.0,11.0,49,0.00,,,0.00,WUHU216DAVISVP2,2013-02-20 10:00:00,
2013-02-20 04:05:00,24.0,7.5,30.31,WSW,242,6.0,11.0,49,0.00,,,0.00,WUHU216DAVISVP2,2013-02-20 10:05:00,
2013-02-20 04:10:00,24.0,7.5,30.31,WSW,242,1.0,9.0,49,0.00,,,0.00,WUHU216DAVISVP2,2013-02-20 10:10:00,
2013-02-20 04:15:00,24.0,8.0,30.31,WSW,242,2.0,8.0,50,0.00,,,0.00,WUHU216DAVISVP2,2013-02-20 10:15:00,
2013-02-20 04:20:00,23.9,7.9,30.32,WSW,242,2.0,8.0,50,0.00,,,0.00,WUHU216DAVISVP2,2013-02-20 10:20:00,
2013-02-20 04:25:00,24.0,7.9,30.32,WSW,242,0.0,6.0,50,0.00,,,0.00,WUHU216DAVISVP2,2013-02-20 10:25:00,
2013-02-20 04:30:00,23.9,8.3,30.32,WSW,242,1.0,6.0,51,0.00,,,0.00,WUHU216DAVISVP2,2013-02-20 10:30:00,
2013-02-20 04:35:00,23.9,8.3,30.32,WSW,242,4.0,6.0,51,0.00,,,0.00,WUHU216DAVISVP2,2013-02-20 10:35:00,
2013-02-20 04:40:00,23.8,8.3,30.33,WSW,253,3.0,6.0,51,0.00,,,0.00,WUHU216DAVISVP2,2013-02-20 10:40:00,
2013-02-20 04:45:00,23.9,8.3,30.33,WSW,253,1.0,6.0,51,0.00,,,0.00,WUHU216DAVISVP2,2013-02-20 10:45:00,
2013-02-20 04:50:00,23.9,8.8,30.33,WSW,253,3.0,6.0,52,0.00,,,0.00,WUHU216DAVISVP2,2013-02-20 10:50:00,
2013-02-20 04:55:00,23.8,8.7,30.33,WSW,253,4.0,6.0,52,0.00,,,0.00,WUHU216DAVISVP2,2013-02-20 10:55:00,
2013-02-20 05:00:00,23.9,7.8,30.33,WSW,253,4.0,6.0,50,0.00,,,0.00,WUHU216DAVISVP2,2013-02-20 11:00:00,
2013-02-20 05:05:00,23.9,7.9,30.33,WSW,254,4.0,6.0,50,0.00,,,0.00,WUHU216DAVISVP2,2013-02-20 11:05:00,
2013-02-20 05:10:00,23.9,7.4,30.33,WSW,254,4.0,8.0,49,0.00,,,0.00,WUHU216DAVISVP2,2013-02-20 11:10:00,
2013-02-20 05:15:00,23.9,7.9,30.33,WSW,249,9.0,9.0,50,0.00,,,0.00,WUHU216DAVISVP2,2013-02-20 11:15:00,
2013-02-20 05:20:00,24.0,8.0,30.33,West,259,5.0,9.0,50,0.00,,,0.00,WUHU216DAVISVP2,2013-02-20 11:20:00,
2013-02-20 05:25:00,23.9,7.9,30.32,WSW,256,5.0,9.0,50,0.00,,,0.00,WUHU216DAVISVP2,2013-02-20 11:25:00,
2013-02-20 05:30:00,23.9,8.4,30.32,WSW,256,1.0,9.0,51,0.00,,,0.00,WUHU216DAVISVP2,2013-02-20 11:30:00,
2013-02-20 05:35:00,24.0,8.8,30.33,WSW,256,1.0,8.0,52,0.00,,,0.00,WUHU216DAVISVP2,2013-02-20 11:35:00,
2013-02-20 05:40:00,24.0,8.9,30.33,WSW,256,0.0,8.0,52,0.00,,,0.00,WUHU216DAVISVP2,2013-02-20 11:40:00,
2013-02-20 05:45:00,24.0,8.0,30.33,West,265,5.0,8.0,50,0.00,,,0.00,WUHU216DAVISVP2,2013-02-20 11:45:00,
2013-02-20 05:50:00,24.0,7.9,30.33,West,274,4.0,8.0,50,0.00,,,0.00,WUHU216DAVISVP2,2013-02-20 11:50:00,
2013-02-20 05:55:00,24.0,8.0,30.33,West,267,6.0,8.0,50,0.00,,,0.00,WUHU216DAVISVP2,2013-02-20 11:55:00,
2013-02-20 06:00:00,24.0,8.5,30.33,West,266,1.0,8.0,51,0.00,,,0.00,WUHU216DAVISVP2,2013-02-20 12:00:00,
2013-02-20 06:05:00,24.1,8.0,30.33,West,266,4.0,8.0,50,0.00,,,0.00,WUHU216DAVISVP2,2013-02-20 12:05:00,
2013-02-20 06:10:00,24.1,8.1,30.33,West,273,4.0,9.0,50,0.00,,,0.00,WUHU216DAVISVP2,2013-02-20 12:10:00,
2013-02-20 06:15:00,24.1,8.6,30.33,West,273,3.0,9.0,51,0.00,,,0.00,WUHU216DAVISVP2,2013-02-20 12:15:00,
2013-02-20 06:20:00,24.2,8.6,30.33,WNW,286,5.0,9.0,51,0.00,,,0.00,WUHU216DAVISVP2,2013-02-20 12:20:00,
2013-02-20 06:25:00,24.2,9.1,30.33,WNW,282,1.0,8.0,52,0.00,,,0.00,WUHU216DAVISVP2,2013-02-20 12:25:00,
2013-02-20 06:30:00,24.2,9.1,30.33,West,281,5.0,8.0,52,0.00,,,0.00,WUHU216DAVISVP2,2013-02-20 12:30:00,
2013-02-20 06:35:00,24.3,9.6,30.33,WNW,286,5.0,8.0,53,0.00,,,0.00,WUHU216DAVISVP2,2013-02-20 12:35:00,
2013-02-20 06:40:00,24.2,9.5,30.33,West,280,7.0,9.0,53,0.00,,,0.00,WUHU216DAVISVP2,2013-02-20 12:40:00,
2013-02-20 06:45:00,24.2,9.5,30.33,West,281,3.0,9.0,53,0.00,,,0.00,WUHU216DAVISVP2,2013-02-20 12:45:00,
2013-02-20 06:50:00,24.3,9.6,30.33,West,280,6.0,9.0,53,0.00,,,0.00,WUHU216DAVISVP2,2013-02-20 12:50:00,
2013-02-20 06:55:00,24.3,9.2,30.33,West,266,5.0,9.0,52,0.00,,,0.00,WUHU216DAVISVP2,2013-02-20 12:55:00,
2013-02-20 07:00:00,24.3,8.7,30.33,West,262,7.0,9.0,51,0.00,,,0.00,WUHU216DAVISVP2,2013-02-20 13:00:00,
2013-02-20 07:05:00,24.3,9.1,30.34,West,279,6.0,9.0,52,0.00,,,0.00,WUHU216DAVISVP2,2013-02-20 13:05:00,
2013-02-20 07:10:00,24.3,8.7,30.34,West,275,4.0,9.0,51,0.00,,,0.00,WUHU216DAVISVP2,2013-02-20 13:10:00,
2013-02-20 07:15:00,24.4,9.2,30.35,West,275,2.0,9.0,52,0.00,,,0.00,WUHU216DAVISVP2,2013-02-20 13:15:00,
2013-02-20 07:20:00,24.5,9.3,30.35,West,275,5.0,8.0,52,0.00,,,0.00,WUHU216DAVISVP2,2013-02-20 13:20:00,
2013-02-20 07:25:00,24.5,9.4,30.34,West,276,4.0,7.0,52,0.00,,,0.00,WUHU216DAVISVP2,2013-02-20 13:25:00,
2013-02-20 07:30:00,24.7,9.5,30.35,West,278,3.0,7.0,52,0.00,,,0.00,WUHU216DAVISVP2,2013-02-20 13:30:00,
2013-02-20 07:35:00,24.7,9.5,30.34,West,278,2.0,7.0,52,0.00,,,0.00,WUHU216DAVISVP2,2013-02-20 13:35:00,
2013-02-20 07:40:00,24.9,10.5,30.34,WNW,293,5.0,7.0,54,0.00,,,0.00,WUHU216DAVISVP2,2013-02-20 13:40:00,
2013-02-20 07:45:00,25.0,10.7,30.34,WNW,293,3.0,7.0,54,0.00,,,0.00,WUHU216DAVISVP2,2013-02-20 13:45:00,
2013-02-20 07:50:00,25.0,10.7,30.34,WNW,293,5.0,7.0,54,0.00,,,0.00,WUHU216DAVISVP2,2013-02-20 13:50:00,
2013-02-20 07:55:00,25.1,10.7,30.34,WNW,291,4.0,9.0,54,0.00,,,0.00,WUHU216DAVISVP2,2013-02-20 13:55:00,
2013-02-20 08:00:00,25.2,11.3,30.34,WNW,296,5.0,9.0,55,0.00,,,0.00,WUHU216DAVISVP2,2013-02-20 14:00:00,
2013-02-20 08:05:00,25.0,10.7,30.34,NW,304,6.0,10.0,54,0.00,,,0.00,WUHU216DAVISVP2,2013-02-20 14:05:00,
2013-02-20 08:10:00,25.0,10.7,30.34,WNW,295,5.0,10.0,54,0.00,,,0.00,WUHU216DAVISVP2,2013-02-20 14:10:00,
2013-02-20 08:15:00,25.0,11.1,30.34,WNW,300,4.0,10.0,55,0.00,,,0.00,WUHU216DAVISVP2,2013-02-20 14:15:00,
2013-02-20 08:20:00,25.0,10.6,30.34,NW,320,8.0,10.0,54,0.00,,,0.00,WUHU216DAVISVP2,2013-02-20 14:20:00,
2013-02-20 08:25:00,24.7,10.0,30.35,NW,313,6.0,9.0,53,0.00,,,0.00,WUHU216DAVISVP2,2013-02-20 14:25:00,
2013-02-20 08:30:00,24.6,10.3,30.34,NW,310,4.0,9.0,54,0.00,,,0.00,WUHU216DAVISVP2,2013-02-20 14:30:00,
2013-02-20 08:35:00,24.5,10.2,30.35,NW,304,5.0,9.0,54,0.00,,,0.00,WUHU216DAVISVP2,2013-02-20 14:35:00,
2013-02-20 08:40:00,24.3,10.1,30.34,WNW,299,5.0,9.0,54,0.00,,,0.00,WUHU216DAVISVP2,2013-02-20 14:40:00,
2013-02-20 08:45:00,24.3,10.0,30.34,WNW,297,4.0,8.0,54,0.00,,,0.00,WUHU216DAVISVP2,2013-02-20 14:45:00,
2013-02-20 08:50:00,24.1,9.9,30.34,WNW,297,3.0,8.0,54,0.00,,,0.00,WUHU216DAVISVP2,2013-02-20 14:50:00,
2013-02-20 08:55:00,24.0,10.1,30.35,WNW,297,1.0,8.0,55,0.00,,,0.00,WUHU216DAVISVP2,2013-02-20 14:55:00,
2013-02-20 09:00:00,23.9,9.7,30.35,WNW,297,5.0,7.0,54,0.00,,,0.00,WUHU216DAVISVP2,2013-02-20 15:00:00,
2013-02-20 09:05:00,23.9,9.6,30.35,WNW,298,4.0,6.0,54,0.00,,,0.00,WUHU216DAVISVP2,2013-02-20 15:05:00,
2013-02-20 09:10:00,23.8,9.6,30.34,WNW,298,4.0,6.0,54,0.00,,,0.00,WUHU216DAVISVP2,2013-02-20 15:10:00,
2013-02-20 09:15:00,23.8,9.5,30.34,WNW,298,1.0,6.0,54,0.00,,,0.00,WUHU216DAVISVP2,2013-02-20 15:15:00,
2013-02-20 09:20:00,23.8,9.5,30.34,WNW,298,2.0,6.0,54,0.00,,,0.00,WUHU216DAVISVP2,2013-02-20 15:20:00,
2013-02-20 09:25:00,23.7,9.5,30.34,WNW,298,4.0,6.0,54,0.00,,,0.00,WUHU216DAVISVP2,2013-02-20 15:25:00,
2013-02-20 09:30:00,23.8,9.1,30.34,WNW,298,1.0,5.0,53,0.00,,,0.00,WUHU216DAVISVP2,2013-02-20 15:30:00,
2013-02-20 09:36:00,23.7,8.6,30.34,NW,306,3.0,7.0,52,0.00,,,0.00,WUHU216DAVISVP2,2013-02-20 15:36:00,
2013-02-20 09:41:00,23.7,8.1,30.34,NW,306,1.0,7.0,51,0.00,,,0.00,WUHU216DAVISVP2,2013-02-20 15:41:00,
2013-02-20 09:46:00,23.7,8.6,30.35,NW,306,1.0,7.0,52,0.00,,,0.00,WUHU216DAVISVP2,2013-02-20 15:46:00,
2013-02-20 09:51:00,23.6,8.1,30.35,NW,306,1.0,7.0,51,0.00,,,0.00,WUHU216DAVISVP2,2013-02-20 15:51:00,
2013-02-20 09:56:00,23.6,8.0,30.35,NW,306,0.0,5.0,51,0.00,,,0.00,WUHU216DAVISVP2,2013-02-20 15:56:00,
2013-02-20 10:01:00,23.5,8.4,30.35,NW,306,3.0,5.0,52,0.00,,,0.00,WUHU216DAVISVP2,2013-02-20 16:01:00,
2013-02-20 10:06:00,23.4,7.9,30.35,NW,306,1.0,4.0,51,0.00,,,0.00,WUHU216DAVISVP2,2013-02-20 16:06:00,
2013-02-20 10:11:00,23.3,8.2,30.34,NW,306,0.0,4.0,52,0.00,,,0.00,WUHU216DAVISVP2,2013-02-20 16:11:00,
2013-02-20 10:16:00,23.3,8.2,30.34,NW,306,0.0,4.0,52,0.00,,,0.00,WUHU216DAVISVP2,2013-02-20 16:16:00,
2013-02-20 10:21:00,23.3,7.7,30.34,NW,306,3.0,5.0,51,0.00,,,0.00,WUHU216DAVISVP2,2013-02-20 16:21:00,
2013-02-20 10:26:00,23.1,7.6,30.34,NW,306,1.0,5.0,51,0.00,,,0.00,WUHU216DAVISVP2,2013-02-20 16:26:00,
2013-02-20 10:31:00,23.1,7.6,30.34,NW,306,3.0,5.0,51,0.00,,,0.00,WUHU216DAVISVP2,2013-02-20 16:31:00,
2013-02-20 10:36:00,23.2,7.7,30.34,NW,306,1.0,5.0,51,0.00,,,0.00,WUHU216DAVISVP2,2013-02-20 16:36:00,
2013-02-20 10:41:00,23.0,7.1,30.34,NW,306,1.0,5.0,50,0.00,,,0.00,WUHU216DAVISVP2,2013-02-20 16:41:00,
2013-02-20 10:46:00,22.8,7.3,30.34,NW,306,0.0,5.0,51,0.00,,,0.00,WUHU216DAVISVP2,2013-02-20 16:46:00,
2013-02-20 10:51:00,22.8,7.3,30.34,NW,306,2.0,4.0,51,0.00,,,0.00,WUHU216DAVISVP2,2013-02-20 16:51:00,
2013-02-20 10:56:00,22.9,7.0,30.34,NW,306,4.0,6.0,50,0.00,,,0.00,WUHU216DAVISVP2,2013-02-20 16:56:00,
2013-02-20 11:01:00,22.8,6.9,30.34,NW,304,3.0,6.0,50,0.00,,,0.00,WUHU216DAVISVP2,2013-02-20 17:01:00,
2013-02-20 11:06:00,22.7,6.8,30.33,WNW,295,2.0,6.0,50,0.00,,,0.00,WUHU216DAVISVP2,2013-02-20 17:06:00,
2013-02-20 11:11:00,22.9,6.9,30.33,West,270,3.0,8.0,50,0.00,,,0.00,WUHU216DAVISVP2,2013-02-20 17:11:00,
2013-02-20 11:16:00,22.9,6.5,30.34,WSW,249,2.0,8.0,49,0.00,,,0.00,WUHU216DAVISVP2,2013-02-20 17:16:00,
2013-02-20 11:21:00,22.8,6.4,30.34,WSW,249,5.0,8.0,49,0.00,,,0.00,WUHU216DAVISVP2,2013-02-20 17:21:00,
2013-02-20 11:26:00,22.9,6.0,30.34,WSW,249,2.0,8.0,48,0.00,,,0.00,WUHU216DAVISVP2,2013-02-20 17:26:00,
2013-02-20 11:31:00,22.9,6.1,30.34,WSW,249,3.0,7.0,48,0.00,,,0.00,WUHU216DAVISVP2,2013-02-20 17:31:00,
2013-02-20 11:36:00,22.9,6.0,30.34,WSW,249,4.0,7.0,48,0.00,,,0.00,WUHU216DAVISVP2,2013-02-20 17:36:00,
2013-02-20 11:41:00,22.9,5.6,30.34,WSW,249,2.0,7.0,47,0.00,,,0.00,WUHU216DAVISVP2,2013-02-20 17:41:00,
2013-02-20 11:46:00,23.0,5.7,30.34,SW,218,1.0,7.0,47,0.00,,,0.00,WUHU216DAVISVP2,2013-02-20 17:46:00,
2013-02-20 11:51:00,23.2,4.8,30.34,WSW,242,5.0,7.0,45,0.00,,,0.00,WUHU216DAVISVP2,2013-02-20 17:51:00,
2013-02-20 11:56:00,23.1,5.3,30.34,West,277,5.0,7.0,46,0.00,,,0.00,WUHU216DAVISVP2,2013-02-20 17:56:00,
2013-02-20 12:01:00,23.3,4.9,30.33,West,277,3.0,7.0,45,0.00,,,0.00,WUHU216DAVISVP2,2013-02-20 18:01:00,
2013-02-20 12:06:00,23.2,4.9,30.33,West,277,1.0,7.0,45,0.00,,,0.00,WUHU216DAVISVP2,2013-02-20 18:06:00,
2013-02-20 12:11:00,23.4,4.5,30.32,WNW,284,4.0,7.0,44,0.00,,,0.00,WUHU216DAVISVP2,2013-02-20 18:11:00,
2013-02-20 12:16:00,23.6,5.7,30.31,WNW,293,5.0,8.0,46,0.00,,,0.00,WUHU216DAVISVP2,2013-02-20 18:16:00,
2013-02-20 12:21:00,23.9,5.5,30.31,WNW,291,7.0,9.0,45,0.00,,,0.00,WUHU216DAVISVP2,2013-02-20 18:21:00,
2013-02-20 12:26:00,24.1,5.2,30.30,West,271,5.0,10.0,44,0.00,,,0.00,WUHU216DAVISVP2,2013-02-20 18:26:00,
2013-02-20 12:31:00,24.2,5.7,30.30,West,275,4.0,10.0,45,0.00,,,0.00,WUHU216DAVISVP2,2013-02-20 18:31:00,
2013-02-20 12:36:00,24.4,5.5,30.28,West,277,6.0,10.0,44,0.00,,,0.00,WUHU216DAVISVP2,2013-02-20 18:36:00,
2013-02-20 12:42:00,24.5,6.1,30.28,West,269,7.0,11.0,45,0.00,,,0.00,WUHU216DAVISVP2,2013-02-20 18:42:00,
2013-02-20 12:47:00,24.6,6.6,30.27,WNW,290,7.0,11.0,46,0.00,,,0.00,WUHU216DAVISVP2,2013-02-20 18:47:00,
2013-02-20 12:52:00,24.9,6.4,30.28,WNW,292,4.0,11.0,45,0.00,,,0.00,WUHU216DAVISVP2,2013-02-20 18:52:00,
2013-02-20 12:57:00,25.2,7.7,30.28,WNW,289,6.0,11.0,47,0.00,,,0.00,WUHU216DAVISVP2,2013-02-20 18:57:00,
2013-02-20 13:02:00,25.6,7.5,30.28,NW,318,3.0,11.0,46,0.00,,,0.00,WUHU216DAVISVP2,2013-02-20 19:02:00,
2013-02-20 13:07:00,25.8,7.2,30.28,WNW,290,0.0,10.0,45,0.00,,,0.00,WUHU216DAVISVP2,2013-02-20 19:07:00,
2013-02-20 13:12:00,25.9,7.8,30.27,WNW,294,3.0,8.0,46,0.00,,,0.00,WUHU216DAVISVP2,2013-02-20 19:12:00,
2013-02-20 13:17:00,25.9,7.3,30.27,WNW,295,0.0,8.0,45,0.00,,,0.00,WUHU216DAVISVP2,2013-02-20 19:17:00,
2013-02-20 13:22:00,26.0,6.9,30.27,WNW,294,2.0,8.0,44,0.00,,,0.00,WUHU216DAVISVP2,2013-02-20 19:22:00,
2013-02-20 13:27:00,26.0,6.9,30.26,West,274,1.0,6.0,44,0.00,,,0.00,WUHU216DAVISVP2,2013-02-20 19:27:00,
2013-02-20 13:31:00,26.2,7.6,30.26,NW,310,1.0,6.0,45,0.00,,,0.00,WUHU216DAVISVP2,2013-02-20 19:31:00,
2013-02-20 13:36:00,26.3,7.2,30.26,West,267,4.0,7.0,44,0.00,,,0.00,WUHU216DAVISVP2,2013-02-20 19:36:00,
2013-02-20 13:41:00,26.1,7.5,30.25,West,272,2.0,7.0,45,0.00,,,0.00,WUHU216DAVISVP2,2013-02-20 19:41:00,
2013-02-20 13:46:00,26.3,7.7,30.25,West,268,4.0,7.0,45,0.00,,,0.00,WUHU216DAVISVP2,2013-02-20 19:46:00,
2013-02-20 13:51:00,26.4,7.3,30.25,West,262,4.0,8.0,44,0.00,,,0.00,WUHU216DAVISVP2,2013-02-20 19:51:00,
2013-02-20 13:56:00,26.4,7.2,30.24,West,262,0.0,8.0,44,0.00,,,0.00,WUHU216DAVISVP2,2013-02-20 19:56:00,
2013-02-20 14:02:00,26.8,7.7,30.24,NW,324,5.0,8.0,44,0.00,,,0.00,WUHU216DAVISVP2,2013-02-20 20:02:00,
2013-02-20 14:07:00,27.1,7.9,30.24,NW,322,2.0,8.0,44,0.00,,,0.00,WUHU216DAVISVP2,2013-02-20 20:07:00,
2013-02-20 14:12:00,27.2,8.0,30.24,West,278,3.0,8.0,44,0.00,,,0.00,WUHU216DAVISVP2,2013-02-20 20:12:00,
2013-02-20 14:17:00,27.4,8.2,30.23,West,278,5.0,8.0,44,0.00,,,0.00,WUHU216DAVISVP2,2013-02-20 20:17:00,
2013-02-20 14:22:00,27.6,8.3,30.22,West,278,1.0,8.0,44,0.00,,,0.00,WUHU216DAVISVP2,2013-02-20 20:22:00,
2013-02-20 14:27:00,27.8,8.6,30.23,West,278,1.0,7.0,44,0.00,,,0.00,WUHU216DAVISVP2,2013-02-20 20:27:00,
2013-02-20 14:32:00,28.0,8.2,30.23,West,266,1.0,7.0,43,0.00,,,0.00,WUHU216DAVISVP2,2013-02-20 20:32:00,
2013-02-20 14:37:00,28.2,9.4,30.23,West,269,4.0,7.0,45,0.00,,,0.00,WUHU216DAVISVP2,2013-02-20 20:37:00,
2013-02-20 14:42:00,28.3,9.0,30.23,West,273,1.0,7.0,44,0.00,,,0.00,WUHU216DAVISVP2,2013-02-20 20:42:00,
2013-02-20 14:47:00,28.4,8.6,30.23,West,270,3.0,7.0,43,0.00,,,0.00,WUHU216DAVISVP2,2013-02-20 20:47:00,
2013-02-20 14:52:00,28.5,8.7,30.22,WSW,249,1.0,9.0,43,0.00,,,0.00,WUHU216DAVISVP2,2013-02-20 20:52:00,
2013-02-20 14:57:00,28.8,8.9,30.22,West,275,7.0,10.0,43,0.00,,,0.00,WUHU216DAVISVP2,2013-02-20 20:57:00,
2013-02-20 15:02:00,29.0,9.1,30.22,WSW,251,5.0,10.0,43,0.00,,,0.00,WUHU216DAVISVP2,2013-02-20 21:02:00,
2013-02-20 15:07:00,29.2,8.8,30.22,WSW,252,2.0,10.0,42,0.00,,,0.00,WUHU216DAVISVP2,2013-02-20 21:07:00,
2013-02-20 15:12:00,29.4,9.5,30.22,West,270,9.0,10.0,43,0.00,,,0.00,WUHU216DAVISVP2,2013-02-20 21:12:00,
2013-02-20 15:17:00,29.5,8.5,30.22,West,279,2.0,11.0,41,0.00,,,0.00,WUHU216DAVISVP2,2013-02-20 21:17:00,
2013-02-20 15:22:00,29.8,8.8,30.21,West,268,6.0,11.0,41,0.00,,,0.00,WUHU216DAVISVP2,2013-02-20 21:22:00,
2013-02-20 15:27:00,29.8,8.2,30.22,West,271,5.0,11.0,40,0.00,,,0.00,WUHU216DAVISVP2,2013-02-20 21:27:00,
2013-02-20 15:32:00,29.9,8.9,30.22,WNW,289,2.0,9.0,41,0.00,,,0.00,WUHU216DAVISVP2,2013-02-20 21:32:00,
2013-02-20 15:37:00,30.1,8.5,30.21,West,277,5.0,9.0,40,0.00,,,0.00,WUHU216DAVISVP2,2013-02-20 21:37:00,
2013-02-20 15:42:00,30.2,8.6,30.21,WSW,254,5.0,8.0,40,0.00,,,0.00,WUHU216DAVISVP2,2013-02-20 21:42:00,
2013-02-20 15:47:00,30.4,8.7,30.21,WSW,252,7.0,8.0,40,0.00,,,0.00,WUHU216DAVISVP2,2013-02-20 21:47:00,
2013-02-20 15:52:00,30.5,8.2,30.22,West,281,4.0,9.0,39,0.00,,,0.00,WUHU216DAVISVP2,2013-02-20 21:52:00,
2013-02-20 15:57:00,30.6,8.9,30.22,West,267,6.0,9.0,40,0.00,,,0.00,WUHU216DAVISVP2,2013-02-20 21:57:00,
2013-02-20 16:02:00,30.7,9.0,30.22,WNW,296,4.0,9.0,40,0.00,,,0.00,WUHU216DAVISVP2,2013-02-20 22:02:00,
2013-02-20 16:07:00,30.9,9.2,30.21,WNW,289,8.0,11.0,40,0.00,,,0.00,WUHU216DAVISVP2,2013-02-20 22:07:00,
2013-02-20 16:12:00,31.1,8.8,30.21,West,265,6.0,11.0,39,0.00,,,0.00,WUHU216DAVISVP2,2013-02-20 22:12:00,
2013-02-20 16:17:00,31.3,9.0,30.21,West,263,6.0,11.0,39,0.00,,,0.00,WUHU216DAVISVP2,2013-02-20 22:17:00,
2013-02-20 16:22:00,31.6,9.8,30.20,West,266,7.0,12.0,40,0.00,,,0.00,WUHU216DAVISVP2,2013-02-20 22:22:00,
2013-02-20 16:27:00,31.7,9.3,30.20,West,281,4.0,12.0,39,0.00,,,0.00,WUHU216DAVISVP2,2013-02-20 22:27:00,
2013-02-20 16:32:00,31.8,9.5,30.20,West,271,2.0,12.0,39,0.00,,,0.00,WUHU216DAVISVP2,2013-02-20 22:32:00,
2013-02-20 16:37:00,31.9,10.1,30.21,West,279,9.0,12.0,40,0.00,,,0.00,WUHU216DAVISVP2,2013-02-20 22:37:00,
2013-02-20 16:42:00,31.9,10.1,30.20,WNW,294,7.0,12.0,40,0.00,,,0.00,WUHU216DAVISVP2,2013-02-20 22:42:00,
2013-02-20 16:47:00,32.1,10.3,30.20,West,267,9.0,12.0,40,0.00,,,0.00,WUHU216DAVISVP2,2013-02-20 22:47:00,
2013-02-20 16:52:00,32.1,10.9,30.20,NW,308,4.0,12.0,41,0.00,,,0.00,WUHU216DAVISVP2,2013-02-20 22:52:00,
2013-02-20 16:57:00,32.3,11.0,30.20,NW,304,7.0,11.0,41,0.00,,,0.00,WUHU216DAVISVP2,2013-02-20 22:57:00,
2013-02-20 17:02:00,32.3,11.1,30.20,West,279,6.0,11.0,41,0.00,,,0.00,WUHU216DAVISVP2,2013-02-20 23:02:00,
2013-02-20 17:07:00,32.5,11.2,30.20,West,279,8.0,11.0,41,0.00,,,0.00,WUHU216DAVISVP2,2013-02-20 23:07:00,
2013-02-20 17:12:00,32.6,11.9,30.19,WNW,286,10.0,11.0,42,0.00,,,0.00,WUHU216DAVISVP2,2013-02-20 23:12:00,
2013-02-20 17:17:00,32.7,11.9,30.19,WNW,293,7.0,11.0,42,0.00,,,0.00,WUHU216DAVISVP2,2013-02-20 23:17:00,
2013-02-20 17:22:00,32.8,12.1,30.19,WNW,295,7.0,11.0,42,0.00,,,0.00,WUHU216DAVISVP2,2013-02-20 23:22:00,
2013-02-20 17:27:00,33.0,12.2,30.19,WNW,287,2.0,11.0,42,0.00,,,0.00,WUHU216DAVISVP2,2013-02-20 23:27:00,
2013-02-20 17:32:00,33.0,12.3,30.19,WNW,289,6.0,11.0,42,0.00,,,0.00,WUHU216DAVISVP2,2013-02-20 23:32:00,
2013-02-20 17:37:00,33.1,12.9,30.19,WNW,295,8.0,10.0,43,0.00,,,0.00,WUHU216DAVISVP2,2013-02-20 23:37:00,
2013-02-20 17:42:00,33.2,12.9,30.19,WNW,290,6.0,11.0,43,0.00,,,0.00,WUHU216DAVISVP2,2013-02-20 23:42:00,
2013-02-20 17:47:00,33.3,13.6,30.19,WNW,295,5.0,11.0,44,0.00,,,0.00,WUHU216DAVISVP2,2013-02-20 23:47:00,
2013-02-20 17:52:00,33.5,13.7,30.20,NW,314,6.0,11.0,44,0.00,,,0.00,WUHU216DAVISVP2,2013-02-20 23:52:00,
2013-02-20 17:57:00,33.6,13.9,30.19,West,275,7.0,11.0,44,0.00,,,0.00,WUHU216DAVISVP2,2013-02-20 23:57:00,
2013-02-20 18:02:00,33.6,14.4,30.19,WNW,295,6.0,11.0,45,0.00,,,0.00,WUHU216DAVISVP2,2013-02-21 00:02:00,
2013-02-20 18:07:00,33.4,14.2,30.19,WNW,295,7.0,11.0,45,0.00,,,0.00,WUHU216DAVISVP2,2013-02-21 00:07:00,
2013-02-20 18:12:00,33.4,12.6,30.19,NW,322,9.0,12.0,42,0.00,,,0.00,WUHU216DAVISVP2,2013-02-21 00:12:00,
2013-02-20 18:17:00,33.4,12.0,30.19,WNW,296,6.0,14.0,41,0.00,,,0.00,WUHU216DAVISVP2,2013-02-21 00:17:00,
2013-02-20 18:22:00,33.3,12.5,30.19,WNW,290,7.0,14.0,42,0.00,,,0.00,WUHU216DAVISVP2,2013-02-21 00:22:00,
2013-02-20 18:28:00,33.3,12.5,30.19,WNW,299,4.0,14.0,42,0.00,,,0.00,WUHU216DAVISVP2,2013-02-21 00:28:00,
2013-02-20 18:33:00,33.3,13.0,30.19,NW,307,6.0,14.0,43,0.00,,,0.00,WUHU216DAVISVP2,2013-02-21 00:33:00,
2013-02-20 18:38:00,33.2,13.0,30.19,NW,320,7.0,11.0,43,0.00,,,0.00,WUHU216DAVISVP2,2013-02-21 00:38:00,
2013-02-20 18:43:00,33.1,12.8,30.19,NW,317,6.0,12.0,43,0.00,,,0.00,WUHU216DAVISVP2,2013-02-21 00:43:00,
2013-02-20 18:48:00,33.0,12.8,30.19,NW,305,7.0,15.0,43,0.00,,,0.00,WUHU216DAVISVP2,2013-02-21 00:48:00,
2013-02-20 18:53:00,32.9,12.7,30.19,NW,304,11.0,15.0,43,0.00,,,0.00,WUHU216DAVISVP2,2013-02-21 00:53:00,
2013-02-20 18:58:00,32.9,12.6,30.19,WNW,298,14.0,15.0,43,0.00,,,0.00,WUHU216DAVISVP2,2013-02-21 00:58:00,
2013-02-20 19:03:00,32.7,11.4,30.18,WNW,291,10.0,15.0,41,0.00,,,0.00,WUHU216DAVISVP2,2013-02-21 01:03:00,
2013-02-20 19:08:00,32.6,11.3,30.18,NW,310,11.0,14.0,41,0.00,,,0.00,WUHU216DAVISVP2,2013-02-21 01:08:00,
2013-02-20 19:13:00,32.5,11.2,30.18,NW,322,1.0,14.0,41,0.00,,,0.00,WUHU216DAVISVP2,2013-02-21 01:13:00,
2013-02-20 19:18:00,32.4,11.7,30.19,NW,310,8.0,14.0,42,0.00,,,0.00,WUHU216DAVISVP2,2013-02-21 01:18:00,
2013-02-20 19:23:00,32.3,11.6,30.18,WNW,297,7.0,14.0,42,0.00,,,0.00,WUHU216DAVISVP2,2013-02-21 01:23:00,
2013-02-20 19:28:00,32.3,11.5,30.18,West,277,9.0,13.0,42,0.00,,,0.00,WUHU216DAVISVP2,2013-02-21 01:28:00,
2013-02-20 19:33:00,32.1,12.0,30.18,WNW,295,8.0,13.0,43,0.00,,,0.00,WUHU216DAVISVP2,2013-02-21 01:33:00,
2013-02-20 19:38:00,32.1,11.9,30.18,WNW,295,8.0,13.0,43,0.00,,,0.00,WUHU216DAVISVP2,2013-02-21 01:38:00,
2013-02-20 19:43:00,32.0,11.9,30.18,NW,307,10.0,12.0,43,0.00,,,0.00,WUHU216DAVISVP2,2013-02-21 01:43:00,
2013-02-20 19:48:00,32.0,12.4,30.18,WNW,285,7.0,12.0,44,0.00,,,0.00,WUHU216DAVISVP2,2013-02-21 01:48:00,
2013-02-20 19:53:00,32.0,12.4,30.18,WNW,298,9.0,12.0,44,0.00,,,0.00,WUHU216DAVISVP2,2013-02-21 01:53:00,
2013-02-20 19:58:00,31.9,12.3,30.18,NW,315,8.0,12.0,44,0.00,,,0.00,WUHU216DAVISVP2,2013-02-21 01:58:00,
2013-02-20 20:03:00,31.9,11.8,30.18,West,281,11.0,13.0,43,0.00,,,0.00,WUHU216DAVISVP2,2013-02-21 02:03:00,
2013-02-20 20:08:00,31.9,12.3,30.17,NW,306,7.0,15.0,44,0.00,,,0.00,WUHU216DAVISVP2,2013-02-21 02:08:00,
2013-02-20 20:13:00,31.8,12.8,30.17,NNW,333,8.0,15.0,45,0.00,,,0.00,WUHU216DAVISVP2,2013-02-21 02:13:00,
2013-02-20 20:18:00,31.8,12.2,30.17,WNW,295,9.0,15.0,44,0.00,,,0.00,WUHU216DAVISVP2,2013-02-21 02:18:00,
2013-02-20 20:23:00,31.8,12.2,30.17,WNW,291,11.0,14.0,44,0.00,,,0.00,WUHU216DAVISVP2,2013-02-21 02:23:00,
2013-02-20 20:28:00,31.7,12.2,30.18,WNW,299,6.0,14.0,44,0.00,,,0.00,WUHU216DAVISVP2,2013-02-21 02:28:00,
2013-02-20 20:33:00,31.7,12.7,30.17,WNW,303,9.0,14.0,45,0.00,,,0.00,WUHU216DAVISVP2,2013-02-21 02:33:00,
2013-02-20 20:38:00,31.7,12.6,30.18,WNW,300,7.0,14.0,45,0.00,,,0.00,WUHU216DAVISVP2,2013-02-21 02:38:00,
2013-02-20 20:43:00,31.7,12.6,30.18,WNW,299,7.0,14.0,45,0.00,,,0.00,WUHU216DAVISVP2,2013-02-21 02:43:00,
2013-02-20 20:48:00,31.6,12.6,30.18,WNW,291,9.0,14.0,45,0.00,,,0.00,WUHU216DAVISVP2,2013-02-21 02:48:00,
2013-02-20 20:53:00,31.6,12.5,30.18,WNW,301,4.0,14.0,45,0.00,,,0.00,WUHU216DAVISVP2,2013-02-21 02:53:00,
2013-02-20 20:58:00,31.6,13.0,30.17,WNW,287,8.0,14.0,46,0.00,,,0.00,WUHU216DAVISVP2,2013-02-21 02:58:00,
2013-02-20 21:03:00,31.4,12.9,30.18,WNW,303,7.0,11.0,46,0.00,,,0.00,WUHU216DAVISVP2,2013-02-21 03:03:00,
2013-02-20 21:08:00,31.5,13.0,30.18,NNW,331,8.0,12.0,46,0.00,,,0.00,WUHU216DAVISVP2,2013-02-21 03:08:00,
2013-02-20 21:13:00,31.5,12.4,30.18,WNW,297,4.0,12.0,45,0.00,,,0.00,WUHU216DAVISVP2,2013-02-21 03:13:00,
2013-02-20 21:18:00,31.4,12.9,30.18,WNW,302,4.0,12.0,46,0.00,,,0.00,WUHU216DAVISVP2,2013-02-21 03:18:00,
2013-02-20 21:23:00,31.4,12.9,30.17,NW,305,5.0,12.0,46,0.00,,,0.00,WUHU216DAVISVP2,2013-02-21 03:23:00,
2013-02-20 21:28:00,31.4,12.9,30.17,NW,318,8.0,12.0,46,0.00,,,0.00,WUHU216DAVISVP2,2013-02-21 03:28:00,
2013-02-20 21:33:00,31.4,12.8,30.17,WNW,298,10.0,13.0,46,0.00,,,0.00,WUHU216DAVISVP2,2013-02-21 03:33:00,
2013-02-20 21:38:00,31.3,12.8,30.18,NW,308,5.0,13.0,46,0.00,,,0.00,WUHU216DAVISVP2,2013-02-21 03:38:00,
2013-02-20 21:43:00,31.3,12.8,30.17,WNW,294,7.0,13.0,46,0.00,,,0.00,WUHU216DAVISVP2,2013-02-21 03:43:00,
2013-02-20 21:48:00,31.3,12.8,30.18,NW,306,5.0,13.0,46,0.00,,,0.00,WUHU216DAVISVP2,2013-02-21 03:48:00,
2013-02-20 21:53:00,31.3,12.2,30.18,WNW,294,8.0,14.0,45,0.00,,,0.00,WUHU216DAVISVP2,2013-02-21 03:53:00,
2013-02-20 21:58:00,31.2,12.2,30.18,WNW,293,7.0,14.0,45,0.00,,,0.00,WUHU216DAVISVP2,2013-02-21 03:58:00,
2013-02-20 22:04:00,31.2,12.2,30.17,NW,322,9.0,15.0,45,0.00,,,0.00,WUHU216DAVISVP2,2013-02-21 04:04:00,
2013-02-20 22:09:00,31.2,12.2,30.17,WNW,284,7.0,18.0,45,0.00,,,0.00,WUHU216DAVISVP2,2013-02-21 04:09:00,
2013-02-20 22:14:00,31.1,11.5,30.18,NNW,342,9.0,18.0,44,0.00,,,0.00,WUHU216DAVISVP2,2013-02-21 04:14:00,
2013-02-20 22:19:00,31.1,12.0,30.18,NW,304,9.0,18.0,45,0.00,,,0.00,WUHU216DAVISVP2,2013-02-21 04:19:00,
2013-02-20 22:24:00,31.0,12.0,30.18,NNW,335,9.0,18.0,45,0.00,,,0.00,WUHU216DAVISVP2,2013-02-21 04:24:00,
2013-02-20 22:29:00,31.0,12.0,30.18,NW,312,11.0,14.0,45,0.00,,,0.00,WUHU216DAVISVP2,2013-02-21 04:29:00,
2013-02-20 22:34:00,30.9,12.4,30.17,NW,309,6.0,14.0,46,0.00,,,0.00,WUHU216DAVISVP2,2013-02-21 04:34:00,
2013-02-20 22:39:00,30.9,12.4,30.18,NW,309,6.0,13.0,46,0.00,,,0.00,WUHU216DAVISVP2,2013-02-21 04:39:00,
2013-02-20 22:44:00,30.9,12.9,30.18,NNW,328,5.0,13.0,47,0.00,,,0.00,WUHU216DAVISVP2,2013-02-21 04:44:00,
2013-02-20 22:49:00,30.7,12.3,30.18,WNW,301,11.0,13.0,46,0.00,,,0.00,WUHU216DAVISVP2,2013-02-21 04:49:00,
2013-02-20 22:54:00,30.7,12.2,30.18,NW,321,11.0,13.0,46,0.00,,,0.00,WUHU216DAVISVP2,2013-02-21 04:54:00,
2013-02-20 22:59:00,30.7,12.7,30.17,NW,324,2.0,13.0,47,0.00,,,0.00,WUHU216DAVISVP2,2013-02-21 04:59:00,
2013-02-20 23:00:00,30.6,12.6,30.17,NW,313,3.0,13.0,47,0.00,,,0.00,WUHU216DAVISVP2,2013-02-21 05:00:00,
2013-02-20 23:05:00,30.6,12.6,30.17,NW,318,5.0,13.0,47,0.00,,,0.00,WUHU216DAVISVP2,2013-02-21 05:05:00,
2013-02-20 23:10:00,30.5,13.0,30.17,West,277,8.0,13.0,48,0.00,,,0.00,WUHU216DAVISVP2,2013-02-21 05:10:00,
2013-02-20 23:15:00,30.3,12.8,30.17,NNW,327,9.0,16.0,48,0.00,,,0.00,WUHU216DAVISVP2,2013-02-21 05:15:00,
2013-02-20 23:20:00,30.1,12.7,30.17,NW,313,10.0,19.0,48,0.00,,,0.00,WUHU216DAVISVP2,2013-02-21 05:20:00,
2013-02-20 23:25:00,29.9,12.5,30.17,WNW,295,7.0,19.0,48,0.00,,,0.00,WUHU216DAVISVP2,2013-02-21 05:25:00,
2013-02-20 23:30:00,29.8,12.4,30.17,NW,322,10.0,19.0,48,0.00,,,0.00,WUHU216DAVISVP2,2013-02-21 05:30:00,
2013-02-20 23:35:00,29.8,12.9,30.17,NW,323,14.0,19.0,49,0.00,,,0.00,WUHU216DAVISVP2,2013-02-21 05:35:00,
2013-02-20 23:40:00,29.8,12.4,30.17,NW,323,11.0,18.0,48,0.00,,,0.00,WUHU216DAVISVP2,2013-02-21 05:40:00,
2013-02-20 23:45:00,29.6,13.6,30.17,WNW,302,10.0,18.0,51,0.00,,,0.00,WUHU216DAVISVP2,2013-02-21 05:45:00,
2013-02-20 23:50:00,29.5,14.4,30.16,WNW,297,8.0,18.0,53,0.00,,,0.00,WUHU216DAVISVP2,2013-02-21 05:50:00,
2013-02-20 23:56:00,29.3,13.8,30.16,NW,307,11.0,17.0,52,0.00,,,0.00,WUHU216DAVISVP2,2013-02-21 05:56:00,